Weather History for Garrison, ND

Change the Weather History Date:

Monday, March 18, 2013

  Actual Average Record
Temperature  
Mean Temperature 6 °F -  
Max Temperature 12 °F 32 °F 78 °F (2012)
Min Temperature 0 °F 15 °F 0 °F (2013)
Degree Days  
Heating Degree Days 59    
Moisture  
Dew Point 1 °F    
Average Humidity 77    
Maximum Humidity 84    
Minimum Humidity 67    
Precipitation  
Precipitation 0.00 in - - ()
Sea Level Pressure  
Sea Level Pressure 29.97 in    
Wind  
Wind Speed 26 mph (NW)    
Max Wind Speed 36 mph    
Max Gust Speed 45 mph    
Averages and records for this station are not official NWS values.
T = Trace of Precipitation, MM = Missing Value Source: NWS Daily Summary

Daily Weather History Graph

Daily Weather History Graph

Search for Another Location

Airport:

Trip Planner

Search our weather history database for the weather conditions in past years. The results will help you decide how hot, cold, wet, or windy it might be!

Date:

Astronomy

Mar. 18, 2013 Rise Set
Actual Time 7:52 AM CDT 7:56 PM CDT
Civil Twilight 7:21 AM CDT 8:26 PM CDT
Nautical Twilight 6:45 AM CDT 9:02 PM CDT
Astronomical Twilight 6:08 AM CDT 9:40 PM CDT
Moon 11:29 AM CDT (3/18) 2:20 AM CDT (3/18)
Length of Visible Light 13h 05m
Length of Day
12h 03m
Waxing Crescent, 41% of the Moon is Illuminated
Mar 18
Waxing Crescent
Mar 19
First Quarter
Mar 27
Full
Apr 2
Last Quarter
Apr 10
New

Hourly Weather History & Observations

Time (CDT) Temp. Windchill Dew Point Humidity Pressure Visibility Wind Dir Wind Speed Gust Speed Precip Events Conditions
12:52 AM 12.9 °F -9.2 °F 9.0 °F 84% 29.70 in - NW 33.4 mph 43.7 mph N/A   Unknown
1:52 AM 10.0 °F -13.7 °F 5.0 °F 80% 29.75 in - NW 35.7 mph 44.9 mph N/A   Unknown
2:52 AM 9.0 °F -15.2 °F 5.0 °F 84% 29.78 in - NW 35.7 mph 41.4 mph N/A   Unknown
3:52 AM 7.0 °F -16.3 °F 3.0 °F 84% 29.81 in - NW 29.9 mph 41.4 mph N/A   Unknown
4:52 AM 7.0 °F -15.6 °F 3.0 °F 84% 29.82 in - NW 27.6 mph 40.3 mph N/A   Unknown
5:52 AM 7.0 °F -16.3 °F 1.9 °F 80% 29.84 in - NW 29.9 mph 39.1 mph N/A   Unknown
6:52 AM 3.9 °F -20.5 °F -0.0 °F 84% 29.88 in - NW 29.9 mph 39.1 mph N/A   Unknown
7:52 AM 1.9 °F -22.0 °F -2.0 °F 83% 29.93 in - NW 26.5 mph 33.4 mph N/A   Unknown
8:52 AM 1.9 °F -22.4 °F -2.9 °F 80% 29.94 in - NW 27.6 mph - N/A   Unknown
9:52 AM 3.0 °F -20.6 °F -2.0 °F 80% 29.97 in - NW 26.5 mph 34.5 mph N/A   Unknown
10:52 AM 5.0 °F -18.7 °F -0.9 °F 76% 29.98 in - NW 28.8 mph 35.7 mph N/A   Unknown
11:52 AM 7.0 °F -15.3 °F 1.0 °F 77% 30.00 in - NW 26.5 mph - N/A   Unknown
12:52 PM 9.0 °F -13.7 °F 1.9 °F 73% 30.02 in - NW 29.9 mph 35.7 mph N/A   Unknown
1:52 PM 10.0 °F -10.4 °F 3.0 °F 73% 30.04 in - NW 24.2 mph 32.2 mph N/A   Unknown
2:52 PM 12.0 °F -7.7 °F 3.0 °F 67% 30.05 in - NW 24.2 mph 28.8 mph N/A   Unknown
3:52 PM 12.0 °F -6.9 °F 3.0 °F 67% 30.04 in - NW 21.9 mph - N/A   Unknown
4:52 PM 12.0 °F -7.3 °F 3.9 °F 70% 30.06 in - NW 23.0 mph - N/A   Unknown
5:52 PM 12.9 °F -2.2 °F 3.9 °F 67% 30.06 in - NNW 13.8 mph - N/A   Unknown
6:52 PM 12.0 °F 1.5 °F 3.0 °F 67% 30.06 in - NNW 6.9 mph - N/A   Unknown
7:52 PM 8.1 °F -0.5 °F 1.9 °F 76% 30.07 in - WNW 4.6 mph - N/A   Unknown
8:52 PM 5.0 °F -4.1 °F -0.9 °F 76% 30.09 in - NW 4.6 mph - N/A   Unknown
9:52 PM 3.9 °F -5.3 °F -2.0 °F 76% 30.10 in - NNE 4.6 mph - N/A   Unknown
10:52 PM -0.0 °F -7.9 °F -4.0 °F 83% 30.11 in - NNW 3.5 mph - N/A   Unknown
11:52 PM -0.9 °F - -6.0 °F 79% 30.12 in - Calm Calm - N/A   Unknown